This demonstration page uses our WeatherBlox Daily Observations layout. Learn more.

Left ArrowRight Arrow

Hourly Observations for March 14, 2017

Temp ( °F °C ) Dew Point ( °F °C ) Humidity (%) Winds ( mph kmh ) Pressure ( in mb ) Visibility ( mi km ) Precip ( " mm )
12:53 am 00:53 Cloudy 29 -1.7 26 -3.3 89 89 N 8 13 30.08 1019 10 16 N/A
1:21 am 01:21 Cloudy 28 -2.2 25 -3.9 88 88 N 9 15 30.12 1020 9 14 N/A
1:34 am 01:34 Cloudy 28 -2.2 24 -4.4 85 85 N 10 17 30.12 1020 10 16 N/A
1:46 am 01:46 Cloudy 28 -2.2 24 -4.4 85 85 N 12 19 30.12 1020 10 16 N/A
1:53 am 01:53 Cloudy 28 -2.2 23 -5 81 81 N 10 17 30.07 1018 10 16 N/A
2:21 am 02:21 Mostly Cloudy 27 -2.8 23 -5 85 85 N 9 15 30.12 1020 10 16 N/A
2:37 am 02:37 Cloudy 27 -2.8 23 -5 85 85 N 12 19 30.12 1020 10 16 N/A
2:53 am 02:53 Cloudy 28 -2.2 23 -5 81 81 N 12 19 30.08 1019 10 16 N/A
3:53 am 03:53 Cloudy 26 -3.3 22 -5.6 84 84 N 12 19 30.08 1019 10 16 N/A
4:53 am 04:53 Cloudy 25 -3.9 20 -6.7 81 81 N 14 22 30.08 1019 10 16 N/A
5:53 am 05:53 Cloudy 24 -4.4 19 -7.2 81 81 N 12 19 30.09 1019 10 16 N/A
6:53 am 06:53 Cloudy 23 -5 17 -8.3 78 78 N 10 17 30.11 1020 10 16 N/A
7:53 am 07:53 Cloudy 22 -5.6 17 -8.3 82 82 N 15 24 30.14 1021 9 14 N/A
8:53 am 08:53 Cloudy 22 -5.6 16 -8.9 78 78 N 14 22 30.17 1022 7 11 N/A
9:53 am 09:53 Cloudy with Light Snow 22 -5.6 16 -8.9 78 78 N 13 20 30.19 1022 6 10 N/A
10:53 am 10:53 Cloudy 24 -4.4 16 -8.9 71 71 NNE 13 20 30.19 1022 10 16 N/A
11:53 am 11:53 Mostly Cloudy 25 -3.9 16 -8.9 69 69 N 14 22 30.19 1022 10 16 N/A
12:00 pm 12:00 Mostly Cloudy 25 -3.9 16 -8.9 69 69 NNE 13 20 30.21 1023 10 16 N/A
12:53 pm 12:53 Partly Cloudy 29 -1.7 19 -7.2 66 66 N 12 19 30.20 1023 10 16 N/A
1:53 pm 13:53 Mostly Cloudy 29 -1.7 15 -9.4 56 56 NNW 16 26 30.19 1022 10 16 N/A
2:53 pm 14:53 Mostly Cloudy 31 -0.6 14 -10 49 49 N 15 24 30.19 1022 10 16 N/A
3:53 pm 15:53 Cloudy 30 -1.1 12 -11.1 47 47 N 13 20 30.19 1022 10 16 N/A
4:53 pm 16:53 Cloudy 30 -1.1 11 -11.7 45 45 NNW 18 30 30.18 1022 10 16 N/A
5:53 pm 17:53 Mostly Cloudy 30 -1.1 14 -10 51 51 NW 17 28 30.19 1022 10 16 N/A
6:27 pm 18:27 Cloudy with Light Snow 26 -3.3 16 -8.9 66 66 NNW 14 22 30.21 1023 3 4 N/A
6:35 pm 18:35 Mostly Cloudy 26 -3.3 16 -8.9 66 66 NW 12 19 30.21 1023 9 14 N/A
6:53 pm 18:53 Mostly Cloudy 26 -3.3 14 -10 60 60 NW 13 20 30.21 1023 10 16 N/A
7:53 pm 19:53 Mostly Clear 25 -3.9 10 -12.2 53 53 NNW 15 24 30.22 1024 10 16 N/A
8:53 pm 20:53 Mostly Cloudy 24 -4.4 12 -11.1 60 60 NNW 12 19 30.24 1024 10 16 N/A
9:53 pm 21:53 Mostly Cloudy 22 -5.6 16 -8.9 78 78 N 5 7 30.25 1025 10 16 N/A
10:53 pm 22:53 Cloudy 23 -5 15 -9.4 72 72 NW 13 20 30.26 1025 9 14 N/A
11:15 pm 23:15 Cloudy with Light Snow 23 -5 16 -8.9 74 74 NNW 10 17 30.27 1025 9 14 N/A
11:46 pm 23:46 Cloudy 23 -5 14 -10 68 68 NNW 12 19 30.27 1025 10 16 N/A
11:53 pm 23:53 Cloudy 23 -5 14 -10 68 68 NNW 14 22 30.27 1025 10 16 N/A

Powered by AerisWeather